Regional Weather Roundup
Issued by NWS Glasgow, MT

Home | Current Version | Previous Version | Text Only | Print | Product List | Glossary On
Versions: 1 2 3 4 5 6 7 8 9 10 11 12 13 14 15 16 17 18 19 20 21 22 23 24 25 26 27 28 29 30 31 32 33 34 35 36 37 38 39 40 41 42 43 44 45 46 47 48 49 50
000
ASUS45 KGGW 291615
RWRGGW
HOURLY REGIONAL WEATHER ROUNDUP FOR NORTHEAST MONTANA
NATIONAL WEATHER SERVICE GLASGOW MONTANA
1000 AM MDT SAT APR 29 2017

NOTE: "FAIR" INDICATES FEW OR NO CLOUDS BELOW 12,000 FEET WITH NO
SIGNIFICANT WEATHER AND/OR OBSTRUCTIONS TO VISISBILITY.

NORTHEAST MONTANA


CITY           SKY/WX    TMP DP  RH WIND       PRES   REMARKS
GLASGOW        SUNNY     51  36  56 S6        30.24F
PLENTYWOOD       N/A     50  29  44 W3          N/A
WOLF POINT     SUNNY     52  36  54 CALM      30.26S
JORDAN           N/A     49  36  61 SW5       30.24F
WINNETT          N/A     51  40  65 SE1         N/A
SIDNEY         PTSUNNY   51  33  50 S3        30.28R
GLENDIVE       CLOUDY    51  34  52 VRB5      30.28R
MALTA            N/A     53  38  56 S2          N/A
SCOBEY           N/A     50  28  43 S8        30.20S

FORT PECK REPORTS


CITY           SKY/WX    TMP DP  RH WIND       PRES   REMARKS
FORT PECK        N/A     46  40  79 S5          N/A
THE PINES        N/A     52  36  54 CALM        N/A

SOUTHEAST MONTANA


CITY           SKY/WX    TMP DP  RH WIND       PRES   REMARKS
BILLINGS       MOSUNNY   43  35  73 SW8       30.26S
MILES CITY     SUNNY     50  36  58 S5        30.27R
BAKER          SUNNY     51  26  37 SW9       30.29S
LIVINGSTON     SUNNY     44  32  62 W9        30.22S

CENTRAL MONTANA


CITY           SKY/WX    TMP DP  RH WIND       PRES   REMARKS
HAVRE          CLOUDY    44  35  70 E5        30.20F
LEWISTOWN      SUNNY     46  30  53 CALM      30.19F
GREAT FALLS    SUNNY     47  33  58 SW13      30.19S
CUT BANK       SUNNY     49  28  44 W15       30.15F
HELENA         SUNNY     46  34  62 CALM      30.22F
BUTTE          MOSUNNY   40  25  55 CALM      30.24S
BOZEMAN        MOSUNNY   43  32  65 CALM      30.23F

WESTERN MONTANA


CITY           SKY/WX    TMP DP  RH WIND       PRES   REMARKS
MISSOULA       PTSUNNY   42  32  67 E8        30.28F
KALISPELL      NOT AVBL

NORTH DAKOTA


CITY           SKY/WX    TMP DP  RH WIND       PRES   REMARKS
WILLISTON      PTSUNNY   52  29  41 CALM      30.26R
DICKINSON      SUNNY     54  20  26 VRB5      30.25F
MINOT          SUNNY     59  24  26 SW14G23   30.24R
BISMARCK       PTSUNNY   52  26  36 CALM      30.31F

SOUTHERN SASKATCHEWAN


CITY           SKY/WX    TMP DP  RH WIND       PRES   REMARKS
REGINA         MOSUNNY   46  36  66 W13       30.22S
ESTEVAN        MOSUNNY   50  34  53 SW6       30.23S
SWIFT CURRENT  SUNNY     46  27  46 W5G23     30.19R




USA.gov is the U.S. government's official web portal to all federal, state and local government web resources and services.